{"data":{"norad_id":54097,"intl_designator":"2022-136AY","name":"STARLINK-5197","alt_names":[],"object_type":"PAYLOAD","status":"ACTIVE","operator":null,"country":"US","launch_date":"2022-10-20","launch_site_code":"AFETR","launch_vehicle":null,"mission":null,"orbit_class":"UNKNOWN","rcs_meters":null,"size_class":null,"mass_kg":null,"dimensions":null,"purposes":["comms"],"wikipedia_slug":null,"has_3d_model":false,"image_url":null,"decayed_at":null,"tle_current":{"epoch":"2026-05-24T22:01:06.657024Z","epoch_age_seconds":92261,"freshness":"FRESH","line1":"1 54097U 22136AY  26144.91743816  .00000167  00000+0  28566-4 0  9999","line2":"2 54097  53.2160 326.8492 0001289  90.2757 269.8383 15.08837395198846","mean_motion":15.08837395,"eccentricity":0.0001289,"inclination_deg":53.216,"raan_deg":326.8492,"arg_perigee_deg":90.2757,"mean_anomaly_deg":269.8383,"bstar":2.8566e-5,"rev_number":19884,"period_min":95.437719450213,"perigee_km":538.85963560992,"apogee_km":540.64306722691,"semimajor_km":6917.8883514184,"source":"CELESTRAK","updated_at":"2026-05-25T13:38:17.656787Z"}}}